STARLINK-2062 (47670 NORAD) Tracking and Keplerian Element Data

This shows tracking and keplerian element data for the satellite.

Feedback or suggestion? Click here.




ElementValue
Catalog47670
NameSTARLINK-2062
Epoch Orbit178
Epoch Day59.91667824
Epoch Year2021
RAAN38.1136
Inclination53.0496
Eccentricity0.0001517
Argument of Perigee105.1077
Mean Anonmoly18.7734
Mean Motion15.86401901
Decay Rate0.00106911
L11 47670U 21012BC 21059.91667824 .00106911 00000-0 41455-3 0 9990
L22 47670 53.0496 38.1136 0001517 105.1077 18.7734 15.86401901 1781

Live tracking and technical data element details for STARLINK-2062 (NORAD 47670). STARLINK-2062 can be tracked NOW for your location showing map with azimuth and elevation plus other details from your city location.

Track the satellite on the map from your city or location and see movement details for azimuth, elevation, latitude, longitude, range, height, and movement on the map or in text.







IsCatalogInMostPopularTable: catalog: 47670, numindb: 6
Update: records affected: 1



GetName: 47670 STARLINK-2062

Hit Count: updated at: Mon, 01 Mar 2021 15:56:53 GMT